Eilat, Israel

6:24 AM IDT on April 25, 2018 (GMT +0300)
Eilat

Weather History for LLET - April, 2013

Change the Weather History Date:

Monday, April 22, 2013

  Actual Average Record
Temperature  
Mean Temperature 70 °F -  
Max Temperature 81 °F 91 °F 123 °F (2008)
Min Temperature 60 °F 70 °F 60 °F (2002)
Cooling Degree Days 5    
Growing Degree Days 20 (Base 50)    
Moisture  
Dew Point 40 °F    
Average Humidity 29    
Maximum Humidity 55    
Minimum Humidity 14    
Precipitation  
Precipitation 0.00 in 0.00 in - ()
Sea Level Pressure  
Sea Level Pressure 29.92 in    
Wind  
Wind Speed 5 mph ()    
Max Wind Speed 12 mph    
Max Gust Speed -    
Visibility 9.5 miles    
Events      
Averages and records for this station are not official NWS values.
T = Trace of Precipitation, MM = Missing Value Source: Averaged Metar Reports

Daily Weather History Graph

Daily Weather History Graph

Search for Another Location

Airport or City:

Astronomy

Apr. 22, 2013 Rise Set
Actual Time 6:06 AM IDT 7:11 PM IDT
Civil Twilight 5:41 AM IDT 7:36 PM IDT
Nautical Twilight 5:12 AM IDT 8:05 PM IDT
Astronomical Twilight 4:42 AM IDT 8:35 PM IDT
Moon 3:52 PM IDT (4/22) 3:33 AM IDT (4/22)
Length of Visible Light 13h 54m
Length of Day
13h 04m
Waxing Gibbous, 85% of the Moon is Illuminated
Apr 22
Waxing Gibbous
Apr 25
Full
May 2
Last Quarter
May 10
New
May 18
First Quarter

Hourly Weather History & Observations

Time (IDT) Temp. Dew Point Humidity Pressure Visibility Wind Dir Wind Speed Gust Speed Precip Events Conditions
3:00 AM 63 °F 45 °F 41% 29.91 in - ENE 2.3 mph - -  
6:50 AM 62.6 °F 46.4 °F 55% 29.95 in - Variable 3.5 mph - N/A   Clear
7:50 AM 64.4 °F 46.4 °F 52% 29.95 in - NE 5.8 mph - N/A   Clear
8:50 AM 68.0 °F 44.6 °F 43% 29.95 in - NE 5.8 mph - N/A   Clear
9:00 AM 70 °F 45 °F 29% 29.96 in 16 mi East 4.6 mph - -   Partly Cloudy
9:50 AM 71.6 °F 42.8 °F 35% 29.98 in 6.2 mi Variable 3.5 mph - N/A   Scattered Clouds
10:50 AM 73.4 °F 41.0 °F 31% 29.95 in 6.2 mi SSE 5.8 mph - N/A   Partly Cloudy
11:50 AM 75.2 °F 41.0 °F 29% 29.95 in 6.2 mi SSE 6.9 mph - N/A   Partly Cloudy
12:50 PM 75.2 °F 41.0 °F 29% 29.95 in 6.2 mi SSW 10.4 mph - N/A   Partly Cloudy
1:50 PM 78.8 °F 42.8 °F 28% 29.92 in - South 5.8 mph - N/A   Clear
2:50 PM 78.8 °F 41.0 °F 26% 29.89 in - South 8.1 mph - N/A   Clear
3:00 PM 78 °F 39 °F 15% 29.87 in 16 mi South 3.5 mph - -   Scattered Clouds
3:50 PM 80.6 °F 39.2 °F 23% 29.86 in - South 5.8 mph - N/A   Clear
4:50 PM 80.6 °F 39.2 °F 23% 29.86 in - South 5.8 mph - N/A   Clear
5:50 PM 80.6 °F 32.0 °F 17% 29.86 in - North 11.5 mph - N/A   Clear
6:50 PM 78.8 °F 33.8 °F 20% 29.86 in - NNW 9.2 mph - N/A   Clear
7:50 PM 77.0 °F 35.6 °F 22% 29.89 in - NNW 6.9 mph - N/A   Clear
8:50 PM 75.2 °F 35.6 °F 24% 29.92 in - North 9.2 mph - N/A   Clear
9:00 PM 74 °F 34 °F 14% 29.92 in - NNW 4.6 mph - -